GW7223 Weather Reports


Display with metric or nautical units.
time (UTC)temp
F
wind
direction
speed
MPH
gust
MPH
rain 1hr
in
rain 24hr
in
rain mn
in
humidity
%
barometer
mb
20260509023937 78 42 0.0 0.0 0.00 0.00 0.00 77 1010.1
20260509023438 79 42 2.0 0.0 0.00 0.00 0.00 76 1010.2
20260509022944 79 42 3.0 0.0 0.00 0.00 0.00 76 1010.0
20260509022438 79 42 0.0 0.0 0.00 0.00 0.00 76 1010.1
20260509021938 79 42 0.0 0.0 0.00 0.00 0.00 76 1010.1
20260509021437 79 42 0.0 0.0 0.00 0.00 0.00 76 1010.0
20260509020939 79 42 4.0 0.0 0.00 0.00 0.00 76 1010.0
20260509020437 79 42 4.0 0.0 0.00 0.00 0.00 76 1009.8
20260509015937 79 42 4.0 0.0 0.00 0.00 0.00 76 1009.7
20260509015436 79 42 5.0 0.0 0.00 0.00 0.00 75 1009.6
20260509014952 79 42 6.0 0.0 0.00 0.00 0.00 75 1009.5
20260509014438 79 42 8.0 0.0 0.00 0.00 0.00 75 1009.4
20260509013937 79 42 4.0 0.0 0.00 0.00 0.00 74 1009.4
20260509013436 79 42 5.0 0.0 0.00 0.00 0.00 75 1009.3
20260509012939 80 42 8.0 0.0 0.00 0.00 0.00 74 1009.2
20260509012437 80 42 9.0 0.0 0.00 0.00 0.00 74 1009.1
20260509011939 80 42 11.0 0.0 0.00 0.00 0.00 74 1009.0
20260509011436 80 42 8.0 0.0 0.00 0.00 0.00 74 1008.9
20260509010938 81 42 2.0 0.0 0.00 0.00 0.00 74 1008.6
20260509010436 81 42 2.0 0.0 0.00 0.00 0.00 74 1008.5
20260509005937 82 42 2.0 0.0 0.00 0.00 0.00 72 1008.3
20260509005437 82 42 6.0 0.0 0.00 0.00 0.00 70 1008.2
20260509004937 83 42 3.0 0.0 0.00 0.00 0.00 70 1008.2
20260509004438 83 42 1.0 0.0 0.00 0.00 0.00 69 1008.2
20260509003938 83 42 1.0 0.0 0.00 0.00 0.00 70 1008.4
20260509003436 83 42 0.0 0.0 0.00 0.00 0.00 70 1008.5
20260509002953 83 42 0.0 0.0 0.00 0.00 0.00 70 1008.4
20260509002436 83 331 3.0 0.0 0.00 0.00 0.00 69 1008.4
20260509001937 83 42 0.0 0.0 0.00 0.00 0.00 68 1008.5
20260509001452 83 102 0.0 0.0 0.00 0.00 0.00 69 1008.5
20260509000936 83 70 0.0 0.0 0.00 0.00 0.00 69 1008.5
20260509000436 83 68 2.0 0.0 0.00 0.00 0.00 70 1008.5
20260508235952 83 78 0.0 0.0 0.00 0.00 0.00 70 1008.6
20260508235437 82 50 0.0 0.0 0.00 0.00 0.00 72 1008.6
20260508234951 82 74 1.0 0.0 0.00 0.00 0.00 71 1008.5
20260508234437 82 149 0.0 0.0 0.00 0.00 0.00 71 1008.5
20260508233937 82 99 2.0 0.0 0.00 0.00 0.00 72 1008.4
20260508233438 82 104 4.0 0.0 0.00 0.00 0.00 72 1008.4
20260508232951 82 110 2.0 0.0 0.00 0.00 0.00 72 1008.5
20260508232437 82 59 4.0 0.0 0.00 0.00 0.00 71 1008.5
20260508231937 82 106 4.0 0.0 0.00 0.00 0.00 70 1008.5
20260508231438 82 93 4.0 0.0 0.00 0.00 0.00 70 1008.5
20260508230936 82 100 3.0 0.0 0.00 0.00 0.00 70 1008.6
20260508230437 82 69 3.0 0.0 0.00 0.00 0.00 70 1008.6
20260508225937 83 77 3.0 0.0 0.00 0.00 0.00 70 1008.6
20260508225437 82 99 3.0 0.0 0.00 0.00 0.00 70 1008.5
20260508224938 82 102 3.0 0.0 0.00 0.00 0.00 71 1008.4
20260508224437 82 95 4.0 0.0 0.00 0.00 0.00 71 1008.2
20260508223938 82 110 2.0 0.0 0.00 0.00 0.00 72 1008.2
20260508223453 82 46 3.0 0.0 0.00 0.00 0.00 72 1008.1
20260508222938 82 106 1.0 0.0 0.00 0.00 0.00 72 1008.2
20260508222436 82 121 0.0 0.0 0.00 0.00 0.00 73 1008.3
20260508221938 82 167 5.0 0.0 0.00 0.00 0.00 71 1008.1
20260508221437 82 158 4.0 0.0 0.00 0.00 0.00 72 1008.0
20260508220938 82 152 12.0 0.0 0.00 0.00 0.00 71 1008.0
20260508220438 82 142 2.0 0.0 0.00 0.00 0.00 71 1008.2
20260508215937 83 165 11.0 0.0 0.00 0.00 0.00 70 1008.3
20260508215437 82 171 3.0 0.0 0.00 0.00 0.00 70 1008.4
20260508214936 83 151 8.0 0.0 0.00 0.00 0.00 69 1008.4
20260508214437 83 188 4.0 0.0 0.00 0.00 0.00 68 1008.5
20260508213952 83 42 1.0 0.0 0.00 0.00 0.00 68 1008.6
20260508213438 83 42 8.0 0.0 0.00 0.00 0.00 66 1008.6
20260508212938 83 42 7.0 0.0 0.00 0.00 0.00 65 1008.7
20260508212436 84 42 6.0 0.0 0.00 0.00 0.00 64 1008.6
20260508211937 84 39 8.0 0.0 0.00 0.00 0.00 64 1008.6
20260508211437 84 42 5.0 0.0 0.00 0.00 0.00 64 1008.6
20260508210938 84 42 11.0 0.0 0.00 0.00 0.00 64 1008.6
20260508210437 84 42 9.0 0.0 0.00 0.00 0.00 64 1008.5
20260508205936 84 42 6.0 0.0 0.00 0.00 0.00 63 1008.4
20260508205453 84 42 10.0 0.0 0.00 0.00 0.00 63 1008.4
20260508204951 85 40 2.0 0.0 0.00 0.00 0.00 64 1008.5
20260508204436 84 104 6.0 0.0 0.00 0.00 0.00 64 1008.7
20260508203951 84 130 8.0 0.0 0.00 0.00 0.00 64 1008.8
20260508203438 84 174 4.0 0.0 0.00 0.00 0.00 64 1008.9
20260508202953 84 159 8.0 0.0 0.00 0.00 0.00 64 1009.0
20260508202438 85 152 14.0 0.0 0.00 0.00 0.00 63 1009.1
20260508201937 85 130 9.0 0.0 0.00 0.00 0.00 61 1009.2
20260508201452 86 111 8.0 0.0 0.00 0.00 0.00 60 1009.2
20260508200936 86 74 15.0 0.0 0.00 0.00 0.00 60 1009.3
20260508200437 86 60 3.0 0.0 0.00 0.00 0.00 61 1009.3
20260508195936 85 167 4.0 0.0 0.00 0.00 0.00 61 1009.4
20260508195437 85 123 7.0 0.0 0.00 0.00 0.00 61 1009.5
20260508194938 86 167 15.0 0.0 0.00 0.00 0.00 60 1009.5
20260508194438 85 135 8.0 0.0 0.00 0.00 0.00 61 1009.6
20260508193953 85 140 17.0 0.0 0.00 0.00 0.00 60 1009.7
20260508193437 85 141 16.0 0.0 0.00 0.00 0.00 61 1009.8
20260508192938 85 160 11.0 0.0 0.00 0.00 0.00 61 1009.8
20260508192438 86 149 21.0 0.0 0.00 0.00 0.00 59 1009.9
20260508191938 86 111 17.0 0.0 0.00 0.00 0.00 59 1009.9
20260508191436 85 128 3.0 0.0 0.00 0.00 0.00 60 1010.0
20260508190938 86 81 13.0 0.0 0.00 0.00 0.00 59 1010.1
20260508190437 86 96 15.0 0.0 0.00 0.00 0.00 60 1010.2
20260508185937 86 100 10.0 0.0 0.00 0.00 0.00 60 1010.2
20260508185438 86 132 18.0 0.0 0.00 0.00 0.00 59 1010.3
20260508184936 87 93 9.0 0.0 0.00 0.00 0.00 58 1010.4
20260508184437 88 108 4.0 0.0 0.00 0.00 0.00 56 1010.4
20260508183937 89 298 0.0 0.0 0.00 0.00 0.00 54 1011.1
20260508183437 89 294 0.0 0.0 0.00 0.00 0.00 53 1011.1
20260508182938 89 294 0.0 0.0 0.00 0.00 0.00 53 1011.1
20260508182437 89 294 0.0 0.0 0.00 0.00 0.00 53 1011.2
20260508181953 89 294 0.0 0.0 0.00 0.00 0.00 53 1011.3
20260508181438 89 294 0.0 0.0 0.00 0.00 0.00 53 1011.4
20260508180938 89 294 0.0 0.0 0.00 0.00 0.00 54 1011.5
20260508180437 89 294 0.0 0.0 0.00 0.00 0.00 54 1011.6
20260508175936 89 294 0.0 0.0 0.00 0.00 0.00 54 1011.6
20260508175437 89 294 0.0 0.0 0.00 0.00 0.00 54 1011.7
20260508174937 89 294 0.0 0.0 0.00 0.00 0.00 54 1011.8
20260508174437 89 294 0.0 0.0 0.00 0.00 0.00 54 1011.8
20260508173937 88 294 0.0 0.0 0.00 0.00 0.00 54 1011.8
20260508173437 88 294 0.0 0.0 0.00 0.00 0.00 55 1011.8
20260508172952 87 294 0.0 0.0 0.00 0.00 0.00 55 1012.1
20260508172437 87 294 0.0 0.0 0.00 0.00 0.00 55 1012.1
20260508171937 87 294 0.0 0.0 0.00 0.00 0.00 55 1012.1
20260508171437 87 294 0.0 0.0 0.00 0.00 0.00 55 1012.1
20260508170936 87 294 0.0 0.0 0.00 0.00 0.00 55 1012.1
20260508170438 87 294 0.0 0.0 0.00 0.00 0.00 55 1012.1
20260508165938 87 294 0.0 0.0 0.00 0.00 0.00 55 1012.2
20260508165437 87 294 0.0 0.0 0.00 0.00 0.00 55 1012.3
20260508164937 87 295 0.0 0.0 0.00 0.00 0.00 54 1012.4
20260508164438 87 294 0.0 0.0 0.00 0.00 0.00 54 1012.3
20260508163938 87 294 0.0 0.0 0.00 0.00 0.00 53 1012.4
20260508163453 87 294 0.0 0.0 0.00 0.00 0.00 52 1012.4
20260508162938 87 294 0.0 0.0 0.00 0.00 0.00 52 1012.5
20260508162438 87 294 0.0 0.0 0.00 0.00 0.00 51 1012.6
20260508161954 87 294 0.0 0.0 0.00 0.00 0.00 50 1012.6
20260508161437 87 294 0.0 0.0 0.00 0.00 0.00 50 1012.7
20260508160938 87 294 0.0 0.0 0.00 0.00 0.00 50 1012.8
20260508160437 87 294 0.0 0.0 0.00 0.00 0.00 50 1012.9
20260508155938 87 294 0.0 0.0 0.00 0.00 0.00 49 1013.0
20260508155436 87 294 0.0 0.0 0.00 0.00 0.00 47 1013.1
20260508154937 87 294 0.0 0.0 0.00 0.00 0.00 47 1013.1
20260508154437 86 294 0.0 0.0 0.00 0.00 0.00 47 1013.2
20260508153938 86 294 0.0 0.0 0.00 0.00 0.00 47 1013.2
20260508153436 86 294 0.0 0.0 0.00 0.00 0.00 47 1013.2
20260508152938 86 294 0.0 0.0 0.00 0.00 0.00 47 1013.3
20260508152436 86 294 0.0 0.0 0.00 0.00 0.00 47 1013.3
20260508151938 86 294 0.0 0.0 0.00 0.00 0.00 47 1013.3
20260508151438 86 294 0.0 0.0 0.00 0.00 0.00 47 1013.3
20260508150937 86 294 0.0 0.0 0.00 0.00 0.00 47 1013.3
20260508150452 86 294 0.0 0.0 0.00 0.00 0.00 47 1013.3
20260508145938 86 294 0.0 0.0 0.00 0.00 0.00 47 1013.2
20260508145438 86 294 0.0 0.0 0.00 0.00 0.00 47 1013.2
20260508144938 86 294 0.0 0.0 0.00 0.00 0.00 47 1013.2
20260508144438 86 294 0.0 0.0 0.00 0.00 0.00 47 1013.1
20260508143938 86 294 0.0 0.0 0.00 0.00 0.00 47 1013.2
20260508143452 86 294 0.0 0.0 0.00 0.00 0.00 47 1013.1
20260508142937 86 294 0.0 0.0 0.00 0.00 0.00 47 1013.1
20260508142437 86 294 0.0 0.0 0.00 0.00 0.00 47 1013.0
20260508141938 86 294 0.0 0.0 0.00 0.00 0.00 47 1013.0
20260508141436 86 294 0.0 0.0 0.00 0.00 0.00 47 1013.0
20260508140938 86 294 0.0 0.0 0.00 0.00 0.00 47 1012.9
20260508140453 86 294 0.0 0.0 0.00 0.00 0.00 47 1012.9
20260508135938 86 294 0.0 0.0 0.00 0.00 0.00 47 1012.9
20260508135438 86 294 0.0 0.0 0.00 0.00 0.00 47 1012.8
20260508134937 86 294 0.0 0.0 0.00 0.00 0.00 47 1012.8
20260508134436 86 294 0.0 0.0 0.00 0.00 0.00 47 1012.8
20260508133936 86 294 0.0 0.0 0.00 0.00 0.00 47 1012.7
20260508133438 86 294 0.0 0.0 0.00 0.00 0.00 47 1012.7
20260508132937 86 294 0.0 0.0 0.00 0.00 0.00 47 1012.6
20260508132436 86 294 0.0 0.0 0.00 0.00 0.00 47 1012.5
20260508131937 86 294 0.0 0.0 0.00 0.00 0.00 47 1012.5
20260508131436 86 294 0.0 0.0 0.00 0.00 0.00 47 1012.4
20260508130938 86 294 0.0 0.0 0.00 0.00 0.00 47 1012.4
20260508130453 86 294 0.0 0.0 0.00 0.00 0.00 47 1012.4
20260508125938 86 294 0.0 0.0 0.00 0.00 0.00 47 1012.4
20260508125438 86 294 0.0 0.0 0.00 0.00 0.00 47 1012.4
20260508124937 86 294 0.0 0.0 0.00 0.00 0.00 47 1012.4
20260508124437 86 294 0.0 0.0 0.00 0.00 0.00 47 1012.3
20260508123937 85 294 0.0 0.0 0.00 0.00 0.00 47 1012.2
20260508123437 85 294 0.0 0.0 0.00 0.00 0.00 47 1012.0
20260508122938 85 294 0.0 0.0 0.00 0.00 0.00 47 1012.0
20260508122436 85 294 0.0 0.0 0.00 0.00 0.00 47 1011.9
20260508121953 85 294 0.0 0.0 0.00 0.00 0.00 47 1011.8
20260508121438 85 294 0.0 0.0 0.00 0.00 0.00 47 1011.7
20260508120953 85 294 0.0 0.0 0.00 0.00 0.00 47 1011.6
20260508120453 85 294 0.0 0.0 0.00 0.00 0.00 47 1011.4
20260508115938 85 294 0.0 0.0 0.00 0.00 0.00 47 1011.3
20260508115437 85 294 0.0 0.0 0.00 0.00 0.00 47 1011.3
20260508114938 85 294 0.0 0.0 0.00 0.00 0.00 47 1011.3
20260508114436 85 294 0.0 0.0 0.00 0.00 0.00 47 1011.2
20260508113951 85 294 0.0 0.0 0.00 0.00 0.00 47 1011.1
20260508113437 85 294 0.0 0.0 0.00 0.00 0.00 48 1011.0
20260508112939 85 294 0.0 0.0 0.00 0.00 0.00 48 1010.9
20260508112438 85 294 0.0 0.0 0.00 0.00 0.00 48 1010.9
20260508111938 85 294 0.0 0.0 0.00 0.00 0.00 48 1010.8
20260508111437 85 294 0.0 0.0 0.00 0.00 0.00 48 1010.8
20260508110936 85 294 0.0 0.0 0.00 0.00 0.00 48 1010.8
20260508110437 85 294 0.0 0.0 0.00 0.00 0.00 48 1010.7
20260508105952 85 294 0.0 0.0 0.00 0.00 0.00 48 1010.6
20260508105437 85 294 0.0 0.0 0.00 0.00 0.00 48 1010.5
20260508104937 85 294 0.0 0.0 0.00 0.00 0.00 48 1010.4
20260508104436 85 294 0.0 0.0 0.00 0.00 0.00 48 1010.3
20260508103951 85 294 0.0 0.0 0.00 0.00 0.00 48 1010.3
20260508103438 85 294 0.0 0.0 0.00 0.00 0.00 48 1010.2
20260508102938 84 294 0.0 0.0 0.00 0.00 0.00 48 1010.1
20260508102438 84 294 0.0 0.0 0.00 0.00 0.00 48 1010.1
20260508101936 84 294 0.0 0.0 0.00 0.00 0.00 48 1010.1
20260508101452 84 294 0.0 0.0 0.00 0.00 0.00 48 1010.1
20260508100936 84 294 0.0 0.0 0.00 0.00 0.00 48 1010.0
20260508100437 84 294 0.0 0.0 0.00 0.00 0.00 48 1010.0
20260508095937 84 294 0.0 0.0 0.00 0.00 0.00 48 1010.0
20260508095452 84 294 0.0 0.0 0.00 0.00 0.00 48 1010.1
20260508094937 84 294 0.0 0.0 0.00 0.00 0.00 48 1010.1
20260508094438 84 294 0.0 0.0 0.00 0.00 0.00 48 1010.2
20260508093939 84 294 0.0 0.0 0.00 0.00 0.00 48 1010.2
20260508093452 83 294 0.0 0.0 0.00 0.00 0.00 48 1010.2
20260508092937 83 294 0.0 0.0 0.00 0.00 0.00 48 1010.2
20260508092438 83 294 0.0 0.0 0.00 0.00 0.00 48 1010.2
20260508091952 83 294 0.0 0.0 0.00 0.00 0.00 48 1010.2
20260508091438 83 294 0.0 0.0 0.00 0.00 0.00 48 1010.3
20260508090938 83 294 0.0 0.0 0.00 0.00 0.00 48 1010.2
20260508090436 83 294 0.0 0.0 0.00 0.00 0.00 48 1010.3
20260508085937 83 294 0.0 0.0 0.00 0.00 0.00 48 1010.3
20260508085438 82 294 0.0 0.0 0.00 0.00 0.00 48 1010.4
20260508084937 82 294 0.0 0.0 0.00 0.00 0.00 48 1010.4
20260508084438 82 294 0.0 0.0 0.00 0.00 0.00 48 1010.4
20260508083938 82 294 0.0 0.0 0.00 0.00 0.00 48 1010.4
20260508083437 82 294 0.0 0.0 0.00 0.00 0.00 48 1010.5
20260508082937 82 294 0.0 0.0 0.00 0.00 0.00 48 1010.6
20260508082452 81 294 0.0 0.0 0.00 0.00 0.00 47 1010.6
20260508081936 81 294 0.0 0.0 0.00 0.00 0.00 48 1010.7
20260508081438 81 294 0.0 0.0 0.00 0.00 0.00 48 1010.8
20260508080938 81 294 0.0 0.0 0.00 0.00 0.00 48 1010.9
20260508080453 81 294 0.0 0.0 0.00 0.00 0.00 48 1011.0
20260508075936 80 294 0.0 0.0 0.00 0.00 0.00 48 1011.0
20260508075453 80 294 0.0 0.0 0.00 0.00 0.00 48 1011.1
20260508074936 80 294 0.0 0.0 0.00 0.00 0.00 49 1011.1
20260508074438 80 294 0.0 0.0 0.00 0.00 0.00 49 1011.3
20260508073936 79 294 0.0 0.0 0.00 0.00 0.00 49 1011.4
20260508073437 79 294 0.0 0.0 0.00 0.00 0.00 49 1011.4
20260508072938 79 294 0.0 0.0 0.00 0.00 0.00 48 1011.6
20260508072452 78 294 0.0 0.0 0.00 0.00 0.00 46 1011.6
20260508071938 78 294 0.0 0.0 0.00 0.00 0.00 45 1011.8
20260508071438 78 294 0.0 0.0 0.00 0.00 0.00 42 1011.9
20260508070953 78 294 0.0 0.0 0.00 0.00 0.00 40 1012.0
20260508070437 78 294 0.0 0.0 0.00 0.00 0.00 41 1012.1
20260508065938 78 294 0.0 0.0 0.00 0.00 0.00 44 1012.2
20260508065437 78 294 0.0 0.0 0.00 0.00 0.00 45 1012.4
20260508064938 78 294 0.0 0.0 0.00 0.00 0.00 44 1012.4
20260508064438 78 294 0.0 0.0 0.00 0.00 0.00 42 1012.4
20260508063939 78 294 0.0 0.0 0.00 0.00 0.00 40 1012.5
20260508063437 78 294 0.0 0.0 0.00 0.00 0.00 43 1012.5
20260508062937 78 294 0.0 0.0 0.00 0.00 0.00 41 1012.6
20260508062437 77 294 0.0 0.0 0.00 0.00 0.00 42 1012.5
20260508061953 77 294 0.0 0.0 0.00 0.00 0.00 39 1012.6
20260508061438 78 294 0.0 0.0 0.00 0.00 0.00 33 1012.8
20260508060937 78 294 0.0 0.0 0.00 0.00 0.00 33 1012.8
20260508060436 78 294 0.0 0.0 0.00 0.00 0.00 33 1012.8
20260508055937 78 294 0.0 0.0 0.00 0.00 0.00 33 1012.8
20260508055437 78 294 0.0 0.0 0.00 0.00 0.00 33 1012.8
20260508054937 78 294 0.0 0.0 0.00 0.00 0.00 33 1012.8
20260508054437 78 294 0.0 0.0 0.00 0.00 0.00 33 1012.8
20260508053936 78 294 0.0 0.0 0.00 0.00 0.00 33 1012.8
20260508053437 78 294 0.0 0.0 0.00 0.00 0.00 33 1012.8
20260508052953 78 294 0.0 0.0 0.00 0.00 0.00 33 1012.8
20260508052437 78 294 0.0 0.0 0.00 0.00 0.00 33 1012.8
20260508051938 78 294 0.0 0.0 0.00 0.00 0.00 33 1012.8
20260508051437 78 294 0.0 0.0 0.00 0.00 0.00 33 1012.8
20260508050937 78 294 0.0 0.0 0.00 0.00 0.00 33 1012.8
20260508050452 78 294 0.0 0.0 0.00 0.00 0.00 33 1012.8
20260508045937 78 294 0.0 0.0 0.00 0.00 0.00 33 1012.8
20260508045438 78 294 0.0 0.0 0.00 0.00 0.00 33 1012.8
20260508044937 78 294 0.0 0.0 0.00 0.00 0.00 33 1012.8
20260508044438 78 294 0.0 0.0 0.00 0.00 0.00 33 1012.8
20260508043953 78 294 0.0 0.0 0.00 0.00 0.00 33 1012.8
20260508043452 78 294 0.0 0.0 0.00 0.00 0.00 33 1012.8
20260508042937 78 294 0.0 0.0 0.00 0.00 0.00 33 1012.8
20260508042438 78 294 0.0 0.0 0.00 0.00 0.00 33 1012.8
20260508041937 78 294 0.0 0.0 0.00 0.00 0.00 33 1012.8
20260508041436 78 294 0.0 0.0 0.00 0.00 0.00 33 1012.8
20260508040936 78 294 0.0 0.0 0.00 0.00 0.00 33 1012.8
20260508040438 78 294 0.0 0.0 0.00 0.00 0.00 33 1012.7
20260508035937 78 294 0.0 0.0 0.00 0.00 0.00 33 1012.6
20260508035436 78 295 0.0 0.0 0.00 0.00 0.00 33 1012.5
20260508034951 78 295 0.0 0.0 0.00 0.00 0.00 33 1012.5
20260508034436 78 294 0.0 0.0 0.00 0.00 0.00 33 1012.5
20260508033937 78 295 0.0 0.0 0.00 0.00 0.00 34 1012.4
20260508033438 78 294 0.0 0.0 0.00 0.00 0.00 34 1012.4
20260508032938 78 294 0.0 0.0 0.00 0.00 0.00 34 1012.2
20260508032452 78 294 0.0 0.0 0.00 0.00 0.00 35 1012.1
20260508031938 78 294 0.0 0.0 0.00 0.00 0.00 35 1012.1
20260508031438 78 294 0.0 0.0 0.00 0.00 0.00 36 1012.1
20260508030938 78 295 0.0 0.0 0.00 0.00 0.00 37 1012.0
20260508030437 83 172 10.0 0.0 0.00 0.00 0.00 63 1010.0
20260508025936 83 172 10.0 0.0 0.00 0.00 0.00 63 1010.0
20260508025453 83 172 10.0 0.0 0.00 0.00 0.00 63 1010.0
20260508024937 83 172 10.0 0.0 0.00 0.00 0.00 63 1010.0
20260508024452 83 172 10.0 0.0 0.00 0.00 0.00 63 1010.0